Voltar ao catálogo

COSMOS 945

AtivoMilitarLEO
NORAD 10291·PAYLOAD·🇷🇺 Russia

Lançado Aug 24, 1977 de Plesetsk Cosmodrome

Loading…

Próximas Passagens (próximas 24 horas)

TLE

AtualizadoSource: Space-Track

Época: Sep 14, 2026, 14:48 UTC

1 10291U 77079G   26257.61705420  .00000001  00000-0  11647-3 0  9993
2 10291  74.0274 325.8794 0017504 125.8471  42.8982 12.47250468212278

Acompanhe COSMOS 945 em tempo real com AllMySat

Download on the App Store